Tiempo cada hora Belém

Hoy, 30 Octubre, Viernes

Tiempo Temperatura Precipitaciones Viento Presión Humedad
00:00 +27°C° 0 mm 3 mps 755 mmHg 91%
01:00 +27°C° 0 mm 3 mps 755 mmHg 92%
02:00 +26°C° 0 mm 3 mps 754 mmHg 93%
03:00 +26°C° 0 mm 3 mps 754 mmHg 93%
04:00 +26°C° 0 mm 3 mps 755 mmHg 94%
05:00 +26°C° 0 mm 3 mps 755 mmHg 94%
06:00 +26°C° 0 mm 3 mps 756 mmHg 95%
07:00 +28°C° 0 mm 3 mps 756 mmHg 86%
08:00 +29°C° 0 mm 3 mps 757 mmHg 77%
09:00 +31°C° 0 mm 3 mps 758 mmHg 68%
10:00 +34°C° 0 mm 4 mps 757 mmHg 63%
11:00 +35°C° 0 mm 4 mps 757 mmHg 58%
12:00 +36°C° 0 mm 4 mps 757 mmHg 53%
13:00 +35°C° 0.3 mm 5 mps 756 mmHg 57%
14:00 +35°C° 0.3 mm 5 mps 755 mmHg 60%
15:00 +34°C° 0.3 mm 6 mps 755 mmHg 64%
16:00 +33°C° 0 mm 6 mps 755 mmHg 66%
17:00 +32°C° 0 mm 6 mps 755 mmHg 68%
18:00 +30°C° 0 mm 6 mps 755 mmHg 70%
19:00 +29°C° 0 mm 5 mps 756 mmHg 72%
20:00 +28°C° 0 mm 5 mps 756 mmHg 73%
21:00 +28°C° 0 mm 4 mps 757 mmHg 74%
22:00 +27°C° 0 mm 4 mps 757 mmHg 78%
23:00 +27°C° 0 mm 4 mps 757 mmHg 81%

Mañana, 31 Octubre, Sábado

Tiempo Temperatura Precipitaciones Viento Presión Humedad
00:00 +26°C° 0 mm 4 mps 757 mmHg 84%
01:00 +26°C° 0 mm 3 mps 757 mmHg 87%
02:00 +25°C° 0 mm 3 mps 756 mmHg 90%
03:00 +25°C° 0 mm 3 mps 756 mmHg 93%
04:00 +25°C° 0 mm 3 mps 756 mmHg 93%
05:00 +25°C° 0 mm 3 mps 756 mmHg 93%
06:00 +25°C° 0 mm 3 mps 756 mmHg 94%
07:00 +27°C° 0 mm 3 mps 757 mmHg 85%
08:00 +29°C° 0 mm 3 mps 757 mmHg 77%
09:00 +31°C° 0 mm 3 mps 757 mmHg 68%
10:00 +33°C° 0 mm 3 mps 757 mmHg 60%
11:00 +35°C° 0 mm 3 mps 756 mmHg 53%
12:00 +37°C° 0 mm 3 mps 756 mmHg 46%
13:00 +37°C° 0 mm 4 mps 755 mmHg 48%
14:00 +36°C° 0 mm 4 mps 754 mmHg 50%
15:00 +36°C° 0 mm 5 mps 754 mmHg 52%
16:00 +35°C° 0 mm 5 mps 754 mmHg 57%
17:00 +33°C° 0 mm 5 mps 754 mmHg 62%
18:00 +32°C° 0 mm 5 mps 755 mmHg 68%
19:00 +30°C° 0 mm 5 mps 755 mmHg 70%
20:00 +29°C° 0 mm 5 mps 755 mmHg 73%
21:00 +29°C° 0 mm 5 mps 756 mmHg 76%
22:00 +28°C° 0 mm 4 mps 756 mmHg 80%
23:00 +27°C° 0 mm 4 mps 756 mmHg 84%

Pasado mañana, 1 Noviembre, Domingo

Tiempo Temperatura Precipitaciones Viento Presión Humedad
00:00 +27°C° 0 mm 3 mps 756 mmHg 87%
01:00 +26°C° 0 mm 3 mps 756 mmHg 89%
02:00 +26°C° 0 mm 3 mps 755 mmHg 90%
03:00 +26°C° 0 mm 2 mps 755 mmHg 92%
04:00 +26°C° 0 mm 2 mps 755 mmHg 93%
05:00 +26°C° 0 mm 2 mps 755 mmHg 94%
06:00 +25°C° 0 mm 2 mps 756 mmHg 95%
07:00 +28°C° 0 mm 2 mps 756 mmHg 85%
08:00 +30°C° 0 mm 3 mps 756 mmHg 76%
09:00 +33°C° 0 mm 3 mps 757 mmHg 66%
10:00 +34°C° 0.1 mm 3 mps 756 mmHg 62%
11:00 +35°C° 0.1 mm 3 mps 756 mmHg 57%
12:00 +36°C° 0.1 mm 3 mps 755 mmHg 53%
13:00 +36°C° 0.3 mm 4 mps 754 mmHg 56%
14:00 +35°C° 0.3 mm 4 mps 754 mmHg 60%
15:00 +34°C° 0.3 mm 4 mps 753 mmHg 63%
16:00 +33°C° 0.2 mm 4 mps 753 mmHg 68%
17:00 +32°C° 0.2 mm 4 mps 753 mmHg 72%
18:00 +30°C° 0.2 mm 4 mps 753 mmHg 76%
19:00 +29°C° 0.1 mm 4 mps 754 mmHg 78%
20:00 +29°C° 0.1 mm 4 mps 754 mmHg 80%
21:00 +28°C° 0.1 mm 4 mps 755 mmHg 82%
22:00 +28°C° 0 mm 4 mps 755 mmHg 83%
23:00 +28°C° 0 mm 4 mps 755 mmHg 85%

2 Noviembre, Lunes

Tiempo Temperatura Precipitaciones Viento Presión Humedad
00:00 +27°C° 0 mm 3 mps 755 mmHg 86%
01:00 +27°C° 0 mm 3 mps 754 mmHg 88%
02:00 +27°C° 0 mm 3 mps 754 mmHg 89%
03:00 +26°C° 0 mm 3 mps 754 mmHg 91%
04:00 +26°C° 0 mm 2 mps 754 mmHg 92%
05:00 +26°C° 0 mm 2 mps 755 mmHg 93%
06:00 +26°C° 0 mm 2 mps 755 mmHg 94%
07:00 +28°C° 0 mm 2 mps 755 mmHg 84%
08:00 +30°C° 0 mm 3 mps 756 mmHg 73%
09:00 +33°C° 0 mm 3 mps 756 mmHg 62%
10:00 +35°C° 0 mm 3 mps 756 mmHg 56%
11:00 +37°C° 0 mm 3 mps 755 mmHg 50%
12:00 +38°C° 0 mm 3 mps 754 mmHg 44%
13:00 +37°C° 0.1 mm 4 mps 754 mmHg 49%
14:00 +36°C° 0.1 mm 4 mps 753 mmHg 54%
15:00 +35°C° 0.1 mm 5 mps 752 mmHg 59%
16:00 +33°C° 0.4 mm 5 mps 752 mmHg 66%
17:00 +32°C° 0.4 mm 5 mps 753 mmHg 73%
18:00 +29°C° 0.4 mm 5 mps 753 mmHg 80%
19:00 +29°C° 0.3 mm 5 mps 753 mmHg 81%
20:00 +28°C° 0.3 mm 4 mps 754 mmHg 82%
21:00 +28°C° 0.3 mm 4 mps 755 mmHg 83%
22:00 +28°C° 0.1 mm 4 mps 755 mmHg 85%
23:00 +27°C° 0.1 mm 3 mps 755 mmHg 88%

3 Noviembre, Martes

Tiempo Temperatura Precipitaciones Viento Presión Humedad
00:00 +26°C° 0.1 mm 3 mps 755 mmHg 90%
01:00 +26°C° 0 mm 2 mps 755 mmHg 90%
02:00 +26°C° 0 mm 2 mps 755 mmHg 91%
03:00 +26°C° 0 mm 2 mps 754 mmHg 92%
04:00 +26°C° 0.3 mm 2 mps 755 mmHg 93%
05:00 +26°C° 0.3 mm 2 mps 755 mmHg 93%
06:00 +26°C° 0.3 mm 2 mps 755 mmHg 94%
07:00 +27°C° 0.9 mm 2 mps 756 mmHg 89%
08:00 +29°C° 0.9 mm 2 mps 756 mmHg 84%
09:00 +30°C° 0.9 mm 2 mps 757 mmHg 79%
10:00 +32°C° 0.7 mm 2 mps 756 mmHg 72%
11:00 +34°C° 0.7 mm 2 mps 756 mmHg 66%
12:00 +35°C° 0.7 mm 1 mps 756 mmHg 59%
13:00 +35°C° 0.6 mm 2 mps 755 mmHg 62%
14:00 +34°C° 0.6 mm 3 mps 754 mmHg 66%
15:00 +33°C° 0.6 mm 3 mps 754 mmHg 69%
16:00 +32°C° 1.4 mm 4 mps 754 mmHg 76%
17:00 +29°C° 1.4 mm 4 mps 754 mmHg 83%
18:00 +27°C° 1.4 mm 5 mps 754 mmHg 90%
19:00 +27°C° 1.6 mm 4 mps 755 mmHg 92%
20:00 +26°C° 1.6 mm 3 mps 756 mmHg 93%
21:00 +26°C° 1.6 mm 2 mps 757 mmHg 95%
22:00 +26°C° 1.2 mm 2 mps 757 mmHg 95%
23:00 +26°C° 1.2 mm 2 mps 757 mmHg 95%

4 Noviembre, Miércoles

Tiempo Temperatura Precipitaciones Viento Presión Humedad
00:00 +26°C° 1.2 mm 2 mps 757 mmHg 95%
01:00 +26°C° 0.4 mm 1 mps 757 mmHg 95%
02:00 +26°C° 0.3 mm 1 mps 756 mmHg 95%
03:00 +26°C° 0.3 mm 1 mps 756 mmHg 94%
04:00 +26°C° 0 mm 1 mps 756 mmHg 95%
05:00 +26°C° 0 mm 1 mps 756 mmHg 95%
06:00 +26°C° 0 mm 1 mps 757 mmHg 95%
07:00 +27°C° 0 mm 1 mps 757 mmHg 90%
08:00 +28°C° 0 mm 2 mps 758 mmHg 84%
09:00 +30°C° 0 mm 2 mps 758 mmHg 78%
10:00 +31°C° 0 mm 2 mps 758 mmHg 70%
11:00 +34°C° 0 mm 2 mps 757 mmHg 62%
12:00 +35°C° 0 mm 2 mps 757 mmHg 54%
13:00 +35°C° 0.2 mm 2 mps 756 mmHg 55%
14:00 +35°C° 0.2 mm 2 mps 755 mmHg 56%
15:00 +35°C° 0.2 mm 3 mps 754 mmHg 57%
16:00 +33°C° 0.2 mm 3 mps 754 mmHg 66%
17:00 +30°C° 0.2 mm 3 mps 754 mmHg 75%
18:00 +29°C° 0.2 mm 4 mps 754 mmHg 84%
19:00 +28°C° 0 mm 4 mps 755 mmHg 85%
20:00 +28°C° 0 mm 4 mps 755 mmHg 85%
21:00 +28°C° 0 mm 4 mps 756 mmHg 86%
22:00 +27°C° 0 mm 3 mps 755 mmHg 87%
23:00 +27°C° 0 mm 3 mps 755 mmHg 88%
Mostrar más

Necesitamos Su Consentimiento

Meteoprog y nuestros Proveedores de Servicios pueden almacenar y acceder a sus datos personales como cookies, identificadores de dispositivo u otras tecnologías similares de su dispositivo y procesar dichos datos para personalizar contenido y anuncios, además de ofrecer funciones de redes sociales y analizar el tráfico.

  • Almacenar y/o acceder a información en su dispositivo

    Se puede almacenar o acceder a cookies, identificadores de dispositivo u otra información de su dispositivo para los fines anteriormente indicados.

  • Anuncios y contenido personalizados, medición de anuncios y contenido, percepciones del público, y desarrollo de productos

    Los anuncios y el contenido pueden personalizarse en base a su perfil. Se pueden añadir más datos para personalizar mejor los anuncios y contenidos. Se puede medir el rendimiento de los anuncios y contenidos. Se puede obtener la percepción sobre el público que ha visto los anuncios y contenidos. Dichos datos pueden usarse para desarrollar o mejorar la experiencia del usuario, sistemas y software.

Al hacer clic en ‘Estoy De Acuerdo’ usted permitirá el uso de las cookies, identificadores de dispositivo, balizas web u otras tecnologías similares indicadas. Su configuración puede cambiarse desde el navegador de su dispositivo.

Para ciertos fines, los intereses legítimos pueden ser considerados por encima del consentimiento. Puede leer más sobre ello en nuestra Política de Privacidad y Cookies.